Regional Weather Roundup
Issued by NWS

Home | Current Version | Previous Version | Graphics & Text | Print | Product List | Glossary Off
Versions: 1 2 3 4 5 6 7 8 9 10 11 12 13 14 15 16 17 18 19 20 21 22 23 24 25 26 27 28 29 30 31 32 33 34 35 36 37 38 39 40 41 42 43 44 45 46 47 48 49 50

000
ASUS43 KDTX 231510
RWRMI
MICHIGAN HOURLY REGIONAL WEATHER ROUNDUP
NATIONAL WEATHER SERVICE DETROIT/PONTIAC MI
ISSUED BY NATIONAL WEATHER SERVICE GRAND RAPIDS MI
1100 AM EDT TUE MAY 23 2017

NOTE: "FAIR" INDICATES FEW OR NO CLOUDS BELOW 12,000 FEET WITH NO
SIGNIFICANT WEATHER AND/OR OBSTRUCTION TO VISIBILITY.

MIZ047>049-052>055-059>063-066>070-074>076-081>083-231600-
SOUTHEAST LOWER MICHIGAN

CITY           SKY/WX    TMP DP  RH WIND       PRES   REMARKS
ADRIAN         CLOUDY    63  52  67 S5        29.87F
ALMA           PTSUNNY   65  55  68 S13G21    29.83F
ANN ARBOR      CLOUDY    64  53  67 S5        29.86F
BAD AXE        CLOUDY    62  54  75 SW5       29.85F
DETROIT CITY   CLOUDY    66  52  60 SW6       29.87F
DETROIT        CLOUDY    64  52  64 S6        29.87F
FLINT          LGT RAIN  63  53  70 SW6       29.86S
GROSSE ILE     CLOUDY    63  55  75 S6        29.87F
HILLSDALE      CLOUDY    64  50  59 S6        29.85F
HOWELL         CLOUDY    63  51  64 S6        29.86S

CITY           SKY/WX    TMP DP  RH WIND       PRES   REMARKS
JACKSON        CLOUDY    64  52  64 SW5       29.86S
LANSING        CLOUDY    64  51  62 S8        29.85S
MASON          CLOUDY    64  54  70 SW5       29.86S
MONROE         CLOUDY    68  49  50 SW5       29.86F
MT. CLEMENS    CLOUDY    64  56  75 VRB5      29.85F
PONTIAC        CLOUDY    62  50  64 S8        29.85F
PORT HOPE        N/A     62  55  77 VRB3      29.83F
PORT HURON     CLOUDY    63  52  67 S3        29.87F
TRI CITIES     CLOUDY    61  55  81 S7        29.85S
YPSILANTI      PTSUNNY   65  53  65 S3        29.87F
$$
MIZ043>046-050>051-056>058-064>065-071>073-077>080-231600-
SOUTHWEST LOWER MICHIGAN

CITY           SKY/WX    TMP DP  RH WIND       PRES   REMARKS
BATTLE CREEK   CLOUDY    63  54  72 SW9       29.86S
BENTON HARBOR  CLOUDY    62  52  69 SW12      29.84R
BIG RAPIDS     CLOUDY    60  54  82 S10       29.81F
COLDWATER      CLOUDY    64  53  68 SW3       29.85F
HOLLAND        CLOUDY    63  53  70 SW12G22   29.82F
GRAND RAPIDS   CLOUDY    64  53  67 SW13      29.82S
KALAMAZOO      CLOUDY    63  52  67 SW8G16    29.85S
MARSHALL       DRIZZLE   64  53  68 SW5       29.85S
MOUNT PLEASANT CLOUDY    62  54  74 SW6       29.82F
MUSKEGON       PTSUNNY   64  53  67 S14       29.81F
STURGIS        CLOUDY    64  54  68 SW5       29.84F
$$
MIZ016>042-231600-
NORTHERN LOWER MICHIGAN

CITY           SKY/WX    TMP DP  RH WIND       PRES   REMARKS
ALPENA         SUNNY     64  49  57 CALM      29.84F
BEAVER ISLAND  PTSUNNY   56  44  64 NE6       29.85S
BELLAIRE       CLOUDY    60  49  66 CALM      29.82S
CADILLAC       CLOUDY    58  54  85 S5        29.81S
CHARLEVOIX     MOSUNNY   51  48  90 N7        29.87R
GAYLORD        PTSUNNY   62  42  47 VRB3      29.82F
HOUGHTON LAKE  CLOUDY    59  53  80 SW5       29.83S
MANISTEE       CLOUDY    59  54  83 W3        29.80S
OSCODA         CLOUDY    58  56  91 S7        29.84S
PELLSTON       MOSUNNY   56  48  74 NE6       29.84F
TRAVERSE CITY  CLOUDY    55  46  71 N7        29.81S
LUDINGTON      CLOUDY    58  55  89 SW5       29.80S
$$
MIZ007>008-015-231600-
EASTERN UPPER MICHIGAN

CITY           SKY/WX    TMP DP  RH WIND       PRES   REMARKS
KINROSS        CLOUDY    49  46  90 E5        29.86F
MACKINAC ISLAN FOG       47  47 100 NE7       29.85F VSB 1/2
NEWBERRY       MOSUNNY   55  45  69 NE3       29.84F
S. S. MARIE    MOSUNNY   53  48  83 CALM      29.85F
$$
MIZ004>006-011>014-085-231600-
CENTRAL UPPER MICHIGAN

CITY           SKY/WX    TMP DP  RH WIND       PRES   REMARKS
MANISTIQUE     CLOUDY    52  46  82 N6        29.85S
ESCANABA       CLOUDY    50  47  89 NE5       29.85F
MENOMINEE      LGT RAIN  49  47  93 E7        29.84S
SAWYER-GWINN   CLOUDY    52  45  76 CALM      29.86S
$$
MIZ001>003-009>011-084-231600-
WESTERN UPPER MICHIGAN

CITY           SKY/WX    TMP DP  RH WIND       PRES   REMARKS
IRON MOUNTAIN  CLOUDY    50  44  80 VRB3      29.84S
HOUGHTON       CLOUDY    52  44  74 E3        29.85S
COPPER HARBOR    N/A     41  39  93 CALM      29.87R
IRONWOOD       CLOUDY    52  45  77 E5        29.87R
$$

ABBREVIATIONS USED IN REMARKS
   TC - TEMPERATURE IN CELSIUS
  WCI - WIND CHILL INDEX
   HX - HEAT INDEX
  VSB - VISIBILITY





USA.gov is the U.S. government's official web portal to all federal, state and local government web resources and services.